Location: Tel Aviv
(32.0670°N, 34.7670°E)
Time: 13:04:56
(UTC+03:00)

Explorer 11/Cluster Stage 4 - Pass Details

Date: 16 September 2024
Orbit: 464 x 1208 km, 28.8° (Epoch: 05 October)

Event Time Altitude Azimuth Distance (km) Brightness Sun altitude
Rises 08:07:42 0° 259° (W) 3,601 9.4 20.7°
Reaches altitude 10° 08:10:11 10° 257° (WSW) 2,756 8.9 21.2°
Maximum altitude 08:17:02 68° 176° (S) 1,190 8.0 22.6°
Drops below altitude 10° 08:24:52 10° 95° (E) 3,124 11.5 24.3°
Sets 08:27:50 0° 93° (E) 4,108 11.6 24.9°
